• In Hungary
  • List of Countries
  • For 7 days
  • Water Temperature
  • Satellite Maps
  • Weather Map
  • News
  • Weather Widgets
  • user-avatar
    Login

    Hourly Weather Kavarskas

    Today, 19 June, Tuesday

    Time Temperature Precipitation Wind Pressure Humidity
    00:00 +14°C° 0 mm 2 mps 754 mmHg 87%
    01:00 +14°C° 0 mm 2 mps 754 mmHg 88%
    02:00 +13°C° 0 mm 1 mps 754 mmHg 88%
    03:00 +13°C° 0 mm 1 mps 754 mmHg 88%
    04:00 +13°C° 0 mm 1 mps 755 mmHg 87%
    05:00 +13°C° 0 mm 1 mps 755 mmHg 87%
    06:00 +15°C° 0 mm 2 mps 754 mmHg 81%
    07:00 +17°C° 0 mm 2 mps 754 mmHg 75%
    08:00 +19°C° 0 mm 2 mps 754 mmHg 68%
    09:00 +20°C° 0 mm 3 mps 754 mmHg 65%
    10:00 +21°C° 0 mm 4 mps 754 mmHg 62%
    11:00 +23°C° 0 mm 5 mps 753 mmHg 59%
    12:00 +23°C° 0.1 mm 6 mps 753 mmHg 61%
    13:00 +23°C° 0.1 mm 6 mps 752 mmHg 63%
    14:00 +23°C° 0.1 mm 6 mps 752 mmHg 65%
    15:00 +22°C° 0.2 mm 6 mps 752 mmHg 69%
    16:00 +21°C° 0.2 mm 6 mps 752 mmHg 73%
    17:00 +20°C° 0.2 mm 6 mps 752 mmHg 77%
    18:00 +19°C° 0 mm 6 mps 752 mmHg 77%
    19:00 +17°C° 0 mm 5 mps 753 mmHg 78%
    20:00 +16°C° 0 mm 5 mps 753 mmHg 78%
    21:00 +15°C° 0 mm 4 mps 753 mmHg 82%
    22:00 +14°C° 0 mm 4 mps 753 mmHg 85%
    23:00 +13°C° 0 mm 3 mps 754 mmHg 89%

    Tomorrow, 20 June, Wednesday

    Time Temperature Precipitation Wind Pressure Humidity
    00:00 +13°C° 0 mm 3 mps 754 mmHg 91%
    01:00 +12°C° 0 mm 3 mps 754 mmHg 94%
    02:00 +12°C° 0 mm 3 mps 754 mmHg 97%
    03:00 +12°C° 0 mm 4 mps 754 mmHg 96%
    04:00 +13°C° 0 mm 4 mps 755 mmHg 95%
    05:00 +13°C° 0 mm 4 mps 755 mmHg 95%
    06:00 +14°C° 0 mm 4 mps 755 mmHg 86%
    07:00 +15°C° 0 mm 4 mps 755 mmHg 78%
    08:00 +17°C° 0 mm 5 mps 755 mmHg 69%
    09:00 +17°C° 0 mm 5 mps 755 mmHg 65%
    10:00 +19°C° 0 mm 5 mps 755 mmHg 60%
    11:00 +20°C° 0 mm 5 mps 755 mmHg 56%
    12:00 +21°C° 0 mm 5 mps 755 mmHg 55%
    13:00 +21°C° 0 mm 6 mps 755 mmHg 54%
    14:00 +22°C° 0 mm 6 mps 755 mmHg 53%
    15:00 +21°C° 0 mm 6 mps 755 mmHg 54%
    16:00 +21°C° 0 mm 5 mps 755 mmHg 55%
    17:00 +21°C° 0 mm 5 mps 755 mmHg 56%
    18:00 +19°C° 0 mm 5 mps 755 mmHg 62%
    19:00 +18°C° 0 mm 4 mps 755 mmHg 67%
    20:00 +17°C° 0 mm 3 mps 755 mmHg 73%
    21:00 +16°C° 0 mm 3 mps 755 mmHg 77%
    22:00 +13°C° 0 mm 3 mps 755 mmHg 80%
    23:00 +12°C° 0 mm 3 mps 755 mmHg 84%

    Day after tomorrow, 21 June, Thursday

    Time Temperature Precipitation Wind Pressure Humidity
    00:00 +12°C° 0 mm 3 mps 754 mmHg 85%
    01:00 +12°C° 0 mm 3 mps 754 mmHg 87%
    02:00 +12°C° 0 mm 3 mps 754 mmHg 88%
    03:00 +13°C° 0 mm 4 mps 754 mmHg 87%
    04:00 +13°C° 0 mm 4 mps 753 mmHg 85%
    05:00 +14°C° 0 mm 4 mps 753 mmHg 84%
    06:00 +15°C° 0 mm 4 mps 753 mmHg 80%
    07:00 +17°C° 0 mm 5 mps 753 mmHg 75%
    08:00 +20°C° 0 mm 5 mps 753 mmHg 71%
    09:00 +21°C° 0 mm 5 mps 752 mmHg 68%
    10:00 +22°C° 0 mm 5 mps 752 mmHg 66%
    11:00 +25°C° 0 mm 5 mps 752 mmHg 64%
    12:00 +25°C° 0.2 mm 5 mps 751 mmHg 64%
    13:00 +26°C° 0.2 mm 5 mps 751 mmHg 64%
    14:00 +26°C° 0.2 mm 5 mps 750 mmHg 64%
    15:00 +26°C° 0.4 mm 4 mps 750 mmHg 65%
    16:00 +26°C° 0.4 mm 4 mps 749 mmHg 66%
    17:00 +26°C° 0.4 mm 4 mps 748 mmHg 67%
    18:00 +25°C° 0.2 mm 4 mps 747 mmHg 71%
    19:00 +23°C° 0.2 mm 4 mps 746 mmHg 76%
    20:00 +22°C° 0.2 mm 4 mps 746 mmHg 80%
    21:00 +21°C° 0.8 mm 4 mps 745 mmHg 83%
    22:00 +21°C° 0.8 mm 5 mps 744 mmHg 86%
    23:00 +20°C° 0.8 mm 5 mps 743 mmHg 89%

    22 June, Friday

    Time Temperature Precipitation Wind Pressure Humidity
    00:00 +20°C° 2.1 mm 6 mps 743 mmHg 91%
    01:00 +20°C° 2.1 mm 6 mps 742 mmHg 93%
    02:00 +19°C° 2.1 mm 6 mps 742 mmHg 94%
    03:00 +17°C° 1.1 mm 6 mps 742 mmHg 94%
    04:00 +15°C° 1.1 mm 6 mps 742 mmHg 94%
    05:00 +14°C° 1.1 mm 6 mps 742 mmHg 93%
    06:00 +14°C° 0.3 mm 6 mps 743 mmHg 90%
    07:00 +14°C° 0.3 mm 6 mps 743 mmHg 86%
    08:00 +14°C° 0.3 mm 6 mps 744 mmHg 83%
    09:00 +14°C° 0.1 mm 6 mps 744 mmHg 77%
    10:00 +15°C° 0.1 mm 6 mps 745 mmHg 71%
    11:00 +16°C° 0.1 mm 6 mps 745 mmHg 65%
    12:00 +17°C° 0.2 mm 6 mps 745 mmHg 65%
    13:00 +17°C° 0.2 mm 6 mps 745 mmHg 65%
    14:00 +17°C° 0.2 mm 6 mps 745 mmHg 64%
    15:00 +17°C° 0.2 mm 6 mps 746 mmHg 64%
    16:00 +17°C° 0.2 mm 6 mps 746 mmHg 64%
    17:00 +17°C° 0.2 mm 5 mps 746 mmHg 64%
    18:00 +15°C° 0.1 mm 5 mps 746 mmHg 68%
    19:00 +14°C° 0.1 mm 4 mps 747 mmHg 73%
    20:00 +13°C° 0.1 mm 3 mps 747 mmHg 78%
    21:00 +12°C° 0 mm 3 mps 747 mmHg 80%
    22:00 +11°C° 0 mm 3 mps 748 mmHg 82%
    23:00 +10°C° 0 mm 3 mps 748 mmHg 85%

    23 June, Saturday

    Time Temperature Precipitation Wind Pressure Humidity
    00:00 +10°C° 0 mm 3 mps 748 mmHg 87%
    01:00 +9°C° 0 mm 3 mps 748 mmHg 89%
    02:00 +9°C° 0 mm 3 mps 748 mmHg 90%
    03:00 +9°C° 0 mm 3 mps 748 mmHg 91%
    04:00 +8°C° 0 mm 3 mps 748 mmHg 92%
    05:00 +8°C° 0 mm 3 mps 748 mmHg 92%
    06:00 +10°C° 0 mm 3 mps 748 mmHg 87%
    07:00 +11°C° 0 mm 3 mps 748 mmHg 82%
    08:00 +13°C° 0 mm 3 mps 748 mmHg 77%
    09:00 +14°C° 0.3 mm 3 mps 748 mmHg 74%
    10:00 +16°C° 0.3 mm 3 mps 748 mmHg 71%
    11:00 +17°C° 0.3 mm 3 mps 748 mmHg 69%
    12:00 +17°C° 0.8 mm 3 mps 748 mmHg 71%
    13:00 +17°C° 0.8 mm 3 mps 748 mmHg 74%
    14:00 +17°C° 0.8 mm 4 mps 748 mmHg 76%
    15:00 +17°C° 0.5 mm 3 mps 748 mmHg 76%
    16:00 +16°C° 0.5 mm 3 mps 748 mmHg 77%
    17:00 +16°C° 0.5 mm 3 mps 748 mmHg 77%
    18:00 +16°C° 0.3 mm 3 mps 748 mmHg 81%
    19:00 +14°C° 0.3 mm 3 mps 748 mmHg 85%
    20:00 +13°C° 0.3 mm 3 mps 748 mmHg 90%
    21:00 +12°C° 0.1 mm 3 mps 749 mmHg 92%
    22:00 +11°C° 0.1 mm 3 mps 749 mmHg 94%
    23:00 +10°C° 0.1 mm 3 mps 749 mmHg 96%

    24 June, Sunday

    Time Temperature Precipitation Wind Pressure Humidity
    00:00 +9°C° 0 mm 3 mps 750 mmHg 96%
    01:00 +9°C° 0 mm 3 mps 750 mmHg 97%
    02:00 +8°C° 0 mm 3 mps 750 mmHg 97%
    03:00 +8°C° 0 mm 3 mps 750 mmHg 97%
    04:00 +8°C° 0 mm 3 mps 750 mmHg 97%
    05:00 +8°C° 0 mm 3 mps 751 mmHg 97%
    06:00 +10°C° 0 mm 3 mps 751 mmHg 94%
    07:00 +11°C° 0 mm 3 mps 751 mmHg 90%
    08:00 +12°C° 0 mm 3 mps 751 mmHg 87%
    09:00 +13°C° 0.2 mm 3 mps 751 mmHg 81%
    10:00 +16°C° 0.2 mm 3 mps 751 mmHg 74%
    11:00 +17°C° 0.2 mm 3 mps 752 mmHg 68%
    12:00 +17°C° 0.4 mm 3 mps 752 mmHg 69%
    13:00 +17°C° 0.4 mm 4 mps 752 mmHg 70%
    14:00 +17°C° 0.4 mm 4 mps 752 mmHg 71%
    15:00 +17°C° 0.3 mm 4 mps 752 mmHg 72%
    16:00 +17°C° 0.3 mm 4 mps 752 mmHg 72%
    17:00 +17°C° 0.3 mm 4 mps 752 mmHg 72%
    18:00 +16°C° 0.1 mm 3 mps 752 mmHg 77%
    19:00 +16°C° 0.1 mm 2 mps 752 mmHg 81%
    20:00 +15°C° 0.1 mm 1 mps 753 mmHg 86%
    21:00 +14°C° 0 mm 1 mps 753 mmHg 87%
    22:00 +13°C° 0 mm 1 mps 753 mmHg 89%
    23:00 +11°C° 0 mm 1 mps 754 mmHg 91%
    Show more